Tracking 19576 objects as of 16-Feb-2019
HD Live streaming from Space Station
objects crossing your sky now

ARIANE 44L DEB

Track ARIANE 44L DEB now!


NORAD ID: 33588
Int'l Code: 1991-003R
Perigee: 572.9 km
Apogee: 30,622.9 km
Inclination: 7.2 °
Period: 540.1 minutes
Semi major axis: 21968 km
RCS: 0.1208 m2 (medium)
Launch date: January 15, 1991
Source: France (FR)
Launch site: FRENCH GUIANA (FRGUI)

Note: This is SATELLITE DEBRIS
aabbcc
Your satellite tracking list
Your tracking list is empty




NASA's NSSDC Master Catalog

Two Line Element Set (TLE):
1 33588U 91003R   19044.98253726 +.00000049 +00000-0 +46319-3 0  9999
2 33588 007.1780 188.8446 6839206 202.9130 047.6535 02.66618260067394
Source of the keplerian elements: AFSPC